Satellite: SO-50
Catalog number: 27607
Epoch time:      12095.61002232
Element set:    0730
Inclination:      064.5585 deg
RA of node:       158.7070 deg
Eccentricity:    0.0084948
Arg of perigee:   263.0751 deg
Mean anomaly:     096.0676 deg
Mean motion:   14.72291947 rev/day
Decay rate:       7.50e-06 rev/day^2
Epoch rev:           49913
Checksum:              316

Satellite: CO-55
Catalog number: 27844
Epoch time:      12095.55220773
Element set:    0344
Inclination:      098.7054 deg
RA of node:       105.0002 deg
Eccentricity:    0.0010696
Arg of perigee:   075.2867 deg
Mean anomaly:     284.9504 deg
Mean motion:   14.20987606 rev/day
Decay rate:       2.36e-06 rev/day^2
Epoch rev:           45443
Checksum:              308

Satellite: CO-57
Catalog number: 27848
Epoch time:      12095.68393824
Element set:     295
Inclination:      098.7136 deg
RA of node:       104.4311 deg
Eccentricity:    0.0010703
Arg of perigee:   080.6503 deg
Mean anomaly:     279.5893 deg
Mean motion:   14.20744181 rev/day
Decay rate:       2.31e-06 rev/day^2
Epoch rev:           45439
Checksum:              314

Satellite: AO-51
Catalog number: 28375
Epoch time:      12095.95983011
Element set:    0236
Inclination:      098.1392 deg
RA of node:       064.6739 deg
Eccentricity:    0.0082794
Arg of perigee:   263.2956 deg
Mean anomaly:     095.8776 deg
Mean motion:   14.40922112 rev/day
Decay rate:       2.16e-06 rev/day^2
Epoch rev:           40822
Checksum:              328

Satellite: CP3
Catalog number: 31129
Epoch time:      12095.46832776
Element set:    0134
Inclination:      097.8842 deg
RA of node:       107.5817 deg
Eccentricity:    0.0101247
Arg of perigee:   353.3045 deg
Mean anomaly:     006.6850 deg
Mean motion:   14.52970661 rev/day
Decay rate:       7.81e-06 rev/day^2
Epoch rev:           26327
Checksum:              303

Satellite: CO-65
Catalog number: 32785
Epoch time:      12095.82980153
Element set:    0274
Inclination:      097.8077 deg
RA of node:       158.5998 deg
Eccentricity:    0.0013918
Arg of perigee:   304.9887 deg
Mean anomaly:     054.9972 deg
Mean motion:   14.82804553 rev/day
Decay rate:      1.487e-05 rev/day^2
Epoch rev:           21289
Checksum:              373

Satellite: PRISM
Catalog number: 33493
Epoch time:      12096.49319727
Element set:     578
Inclination:      098.1592 deg
RA of node:       235.3898 deg
Eccentricity:    0.0019323
Arg of perigee:   169.6484 deg
Mean anomaly:     190.5141 deg
Mean motion:   14.83487915 rev/day
Decay rate:      3.332e-05 rev/day^2
Epoch rev:           17297
Checksum:              346

Satellite: SOHLA-1
Catalog number: 33496
Epoch time:      12095.86060180
Element set:    0707
Inclination:      098.0965 deg
RA of node:       208.1165 deg
Eccentricity:    0.0005597
Arg of perigee:   275.9766 deg
Mean anomaly:     084.0795 deg
Mean motion:   14.69910215 rev/day
Decay rate:       4.21e-06 rev/day^2
Epoch rev:           17147
Checksum:              322

Satellite: SO-67
Catalog number: 35870
Epoch time:      12096.61655601
Element set:     838
Inclination:      097.2409 deg
RA of node:       134.9172 deg
Eccentricity:    0.0003769
Arg of perigee:   076.8307 deg
Mean anomaly:     080.9221 deg
Mean motion:   15.23198506 rev/day
Decay rate:      4.804e-05 rev/day^2
Epoch rev:           14156
Checksum:              321

Satellite: TISAT-1
Catalog number: 36799
Epoch time:      12096.48129916
Element set:     855
Inclination:      098.0659 deg
RA of node:       172.2856 deg
Eccentricity:    0.0016022
Arg of perigee:   051.9718 deg
Mean anomaly:     308.2942 deg
Mean motion:   14.81695432 rev/day
Decay rate:      1.852e-05 rev/day^2
Epoch rev:            9372
Checksum:              338

Satellite: STUDSAT
Catalog number: 36801
Epoch time:      12095.91195747
Element set:    0417
Inclination:      098.0728 deg
RA of node:       172.1287 deg
Eccentricity:    0.0013718
Arg of perigee:   040.9219 deg
Mean anomaly:     319.3023 deg
Mean motion:   14.83581477 rev/day
Decay rate:      5.016e-05 rev/day^2
Epoch rev:           09365
Checksum:              309

Satellite: FO-69
Catalog number: 37227
Epoch time:      12096.30024898
Element set:    0144
Inclination:      071.9681 deg
RA of node:       112.7872 deg
Eccentricity:    0.0015225
Arg of perigee:   097.7284 deg
Mean anomaly:     262.5607 deg
Mean motion:   14.76988299 rev/day
Decay rate:       4.82e-06 rev/day^2
Epoch rev:           02533
Checksum:              337

Satellite: FO-70
Catalog number: 37380
Epoch time:      12096.42909929
Element set:    0151
Inclination:      071.9718 deg
RA of node:       112.9699 deg
Eccentricity:    0.0015702
Arg of perigee:   094.0230 deg
Mean anomaly:     266.2840 deg
Mean motion:   14.76743898 rev/day
Decay rate:       5.00e-06 rev/day^2
Epoch rev:           02524
Checksum:              313

Satellite: ALMASAT-1
Catalog number: 38078
Epoch time:      12096.44814536
Element set:      95
Inclination:      069.4937 deg
RA of node:       121.7382 deg
Eccentricity:    0.0770265
Arg of perigee:   339.5148 deg
Mean anomaly:     017.6530 deg
Mean motion:   14.06415247 rev/day
Decay rate:     2.6337e-04 rev/day^2
Epoch rev:             731
Checksum:              312

